Regional Weather Roundup
Issued by NWS

Home | Current Version | Previous Version | Text Only | Print | Product List | Glossary On
Versions: 1 2 3 4 5 6 7 8 9 10 11 12 13 14 15 16 17 18 19 20 21 22 23 24 25 26 27 28 29 30 31 32 33 34 35 36 37 38 39 40 41 42 43 44 45 46 47 48 49 50
000
ASUS43 KLSX 200107
RWRMO

WEATHER SUMMARY FOR MISSOURI
NATIONAL WEATHER SERVICE SPRINGFIELD MO
800 PM CDT TUE AUG 19 2014

NOTE: "FAIR" INDICATES FEW OR NO CLOUDS BELOW 12,000 FEET WITH NO
       SIGNIFICANT WEATHER AND/OR OBSTRUCTIONS TO VISIBILITY.
       CURRENT SKY AND/OR WEATHER CONDITIONS ARE NOT AVAILABLE FOR
       CHILLICOTHE AND FARMINGTON.

MOZ001>031-035>038-043-044-053-054-200200-
...NORTHERN AND WESTERN MISSOURI...

CITY           SKY/WX    TMP DP  RH WIND       PRES   REMARKS
KANSAS CTY INT PTCLDY    84  73  69 SE5       29.79S HX  90
KANSAS C DTWN  CLEAR     88  70  55 NE7       29.77S HX  93
LEE`S SUMMIT   CLEAR     86  73  65 S5        29.79F HX  93
ST JOSEPH      CLEAR     84  73  69 E3        29.77F HX  90
CHILLICOTHE      N/A     82  76  81 CALM      29.80S
KIRKSVILLE     CLEAR     79  71  76 W3        29.81R

$$
MOZ066>068-077>081-088>096-101>105-200200-
...SOUTHWEST MISSOURI...

CITY           SKY/WX    TMP DP  RH WIND       PRES   REMARKS
SPRINGFIELD    CLEAR     87  65  47 SW9       29.84R
JOPLIN         PTCLDY    86  68  54 S9        29.83S

$$
MOZ032>034-039>042-045>050-055>058-069>072-200200-
...CENTRAL MISSOURI...

CITY           SKY/WX    TMP DP  RH WIND       PRES   REMARKS
COLUMBIA       CLEAR     83  71  67 NW5       29.81R
JEFFERSON CITY CLEAR     82  73  74 CALM      29.78S
ROLLA          CLEAR     80  70  71 E3        29.82R
SEDALIA        CLEAR     83  71  67 CALM      29.81S
WHITEMAN AFB   PTCLDY    82  66  58 SE1       29.80R
OSAGE BEACH    CLEAR     81  72  74 CALM      29.81R

$$
MOZ051-052-059>065-200200-
...EAST CENTRAL MISSOURI...

CITY           SKY/WX    TMP DP  RH WIND       PRES   REMARKS
ST LOUIS INTL  PTCLDY    85  69  58 SW3       29.80S
SPIRIT OF STL  PTCLDY    80  75  84 CALM      29.78S
ST CHARLES     CLEAR     79  74  84 NE3       29.78R

$$
MOZ072>076-082>087-097>100-106>115-200200-
...SOUTH CENTRAL AND SOUTHEAST MISSOURI...

CITY           SKY/WX    TMP DP  RH WIND       PRES   REMARKS
CAPE GIRARDEAU MOCLDY    75  70  84 CALM      29.81F
FARMINGTON     CLEAR     79  66  65 SE6       29.86R
POPLAR BLUFF   CLEAR     83  72  69 SE8       29.82R
WEST PLAINS    CLEAR     81  68  64 CALM      29.86R

$$


USA.gov is the U.S. government's official web portal to all federal, state and local government web resources and services.